Wetterdaten: Mittwoch, 17.09.2014
Datum Zeit Temp. A. Feuchte A. Luftdruck Regen Wind Richtung Richtung Sonnenschein ET UV Solar Taupunkt Windchill Windben Empfang
17.09.2014 00:00 13,9 C 85 % 1013,7 hPa 0,0 l/m 1,4 km/h (1 Bft) SO 129 0 min 0,000 mm 0,0 UV-I 0 W/m 11,4 C 13,9 C 4,0 km/h (1 Bft) 0,00 %
17.09.2014 00:15 13,7 C 85 % 1013,7 hPa 0,0 l/m 0,7 km/h (0 Bft) O 89 0 min 0,000 mm 0,0 UV-I 0 W/m 11,2 C 13,7 C 4,0 km/h (1 Bft) 0,00 %
17.09.2014 00:30 13,5 C 86 % 1013,5 hPa 0,0 l/m 0,4 km/h (0 Bft) N 355 0 min 0,000 mm 0,0 UV-I 0 W/m 11,2 C 13,5 C 4,0 km/h (1 Bft) 0,00 %
17.09.2014 00:45 13,4 C 87 % 1013,7 hPa 0,0 l/m 4,0 km/h (1 Bft) O-SO 106 0 min 0,000 mm 0,0 UV-I 0 W/m 11,3 C 13,4 C 7,9 km/h (2 Bft) 0,00 %
17.09.2014 01:00 13,4 C 87 % 1013,5 hPa 0,0 l/m 0,7 km/h (0 Bft) O 100 0 min 0,000 mm 0,0 UV-I 0 W/m 11,3 C 13,4 C 4,0 km/h (1 Bft) 0,00 %
17.09.2014 01:15 13,1 C 87 % 1013,4 hPa 0,0 l/m 0,4 km/h (0 Bft) O-NO 66 0 min 0,000 mm 0,0 UV-I 0 W/m 11,0 C 13,1 C 4,0 km/h (1 Bft) 0,00 %
17.09.2014 01:30 13,0 C 88 % 1013,6 hPa 0,0 l/m 2,9 km/h (1 Bft) O 99 0 min 0,000 mm 0,0 UV-I 0 W/m 11,1 C 13,0 C 4,0 km/h (1 Bft) 0,00 %
17.09.2014 01:45 12,9 C 88 % 1013,6 hPa 0,0 l/m 0,4 km/h (0 Bft) O-NO 63 0 min 0,000 mm 0,0 UV-I 0 W/m 11,0 C 12,9 C 4,0 km/h (1 Bft) 0,00 %
17.09.2014 02:00 12,8 C 88 % 1013,3 hPa 0,0 l/m 0,0 km/h (0 Bft) O-SO 123 0 min 0,000 mm 0,0 UV-I 0 W/m 10,9 C 12,8 C 0,0 km/h (0 Bft) 0,00 %
17.09.2014 02:15 12,5 C 89 % 1013,5 hPa 0,0 l/m 0,0 km/h (0 Bft) S 186 0 min 0,000 mm 0,0 UV-I 0 W/m 10,7 C 12,5 C 0,0 km/h (0 Bft) 0,00 %
17.09.2014 02:30 12,2 C 89 % 1013,6 hPa 0,0 l/m 0,0 km/h (0 Bft) S 188 0 min 0,000 mm 0,0 UV-I 0 W/m 10,4 C 12,2 C 0,0 km/h (0 Bft) 0,00 %
17.09.2014 02:45 11,8 C 90 % 1013,4 hPa 0,0 l/m 0,0 km/h (0 Bft) S 191 0 min 0,000 mm 0,0 UV-I 0 W/m 10,2 C 11,8 C 0,0 km/h (0 Bft) 0,00 %
17.09.2014 03:00 11,7 C 90 % 1013,5 hPa 0,0 l/m 0,0 km/h (0 Bft) S 182 0 min 0,000 mm 0,0 UV-I 0 W/m 10,1 C 11,7 C 0,0 km/h (0 Bft) 0,00 %
17.09.2014 03:15 11,5 C 91 % 1013,5 hPa 0,0 l/m 0,0 km/h (0 Bft) S 180 0 min 0,000 mm 0,0 UV-I 0 W/m 10,1 C 11,5 C 0,0 km/h (0 Bft) 0,00 %
17.09.2014 03:30 11,3 C 92 % 1013,4 hPa 0,0 l/m 0,0 km/h (0 Bft) SO 127 0 min 0,000 mm 0,0 UV-I 0 W/m 10,0 C 11,3 C 0,0 km/h (0 Bft) 0,00 %
17.09.2014 03:45 11,4 C 92 % 1013,5 hPa 0,0 l/m 0,0 km/h (0 Bft) S-SW 200 0 min 0,000 mm 0,0 UV-I 0 W/m 10,1 C 11,4 C 0,0 km/h (0 Bft) 0,00 %
17.09.2014 04:00 11,2 C 92 % 1013,4 hPa 0,0 l/m 0,0 km/h (0 Bft) S-SW 200 0 min 0,000 mm 0,0 UV-I 0 W/m 9,9 C 11,2 C 0,0 km/h (0 Bft) 0,00 %
17.09.2014 04:15 11,0 C 92 % 1013,4 hPa 0,0 l/m 0,0 km/h (0 Bft) S-SW 200 0 min 0,000 mm 0,0 UV-I 0 W/m 9,8 C 11,0 C 0,0 km/h (0 Bft) 0,00 %
17.09.2014 04:30 10,9 C 92 % 1013,4 hPa 0,0 l/m 0,0 km/h (0 Bft) S-SW 200 0 min 0,000 mm 0,0 UV-I 0 W/m 9,7 C 10,9 C 0,0 km/h (0 Bft) 0,00 %
17.09.2014 04:45 10,8 C 93 % 1013,3 hPa 0,0 l/m 0,0 km/h (0 Bft) SO 130 0 min 0,000 mm 0,0 UV-I 0 W/m 9,7 C 10,8 C 0,0 km/h (0 Bft) 0,00 %
17.09.2014 05:00 10,9 C 93 % 1013,2 hPa 0,0 l/m 0,0 km/h (0 Bft) O-SO 114 0 min 0,000 mm 0,0 UV-I 0 W/m 9,8 C 10,9 C 0,0 km/h (0 Bft) 0,00 %
17.09.2014 05:15 10,8 C 93 % 1013,1 hPa 0,0 l/m 0,0 km/h (0 Bft) S-SW 195 0 min 0,000 mm 0,0 UV-I 0 W/m 9,7 C 10,8 C 0,0 km/h (0 Bft) 0,00 %
17.09.2014 05:30 10,4 C 93 % 1013,1 hPa 0,0 l/m 0,0 km/h (0 Bft) S-SW 195 0 min 0,000 mm 0,0 UV-I 0 W/m 9,3 C 10,4 C 0,0 km/h (0 Bft) 0,00 %
17.09.2014 05:45 10,1 C 93 % 1013,1 hPa 0,0 l/m 0,0 km/h (0 Bft) S-SW 195 0 min 0,000 mm 0,0 UV-I 0 W/m 9,0 C 10,1 C 0,0 km/h (0 Bft) 0,00 %
17.09.2014 06:00 9,9 C 93 % 1013,2 hPa 0,0 l/m 0,0 km/h (0 Bft) S-SW 200 0 min 0,000 mm 0,0 UV-I 0 W/m 8,8 C 9,9 C 0,0 km/h (0 Bft) 0,00 %
17.09.2014 06:15 9,7 C 93 % 1013,5 hPa 0,0 l/m 0,0 km/h (0 Bft) S-SW 200 0 min 0,000 mm 0,0 UV-I 0 W/m 8,6 C 9,7 C 0,0 km/h (0 Bft) 0,00 %
17.09.2014 06:30 9,6 C 93 % 1013,6 hPa 0,0 l/m 0,0 km/h (0 Bft) S-SW 200 0 min 0,000 mm 0,0 UV-I 0 W/m 8,5 C 9,6 C 0,0 km/h (0 Bft) 0,00 %
17.09.2014 06:45 9,5 C 94 % 1013,5 hPa 0,0 l/m 0,0 km/h (0 Bft) S-SW 200 0 min 0,000 mm 1,0 UV-I 3 W/m 8,6 C 9,5 C 0,0 km/h (0 Bft) 0,00 %
17.09.2014 07:00 9,2 C 94 % 1013,8 hPa 0,0 l/m 0,0 km/h (0 Bft) S-SW 200 15 min 0,000 mm 1,0 UV-I 32 W/m 8,3 C 9,2 C 0,0 km/h (0 Bft) 0,00 %
17.09.2014 07:15 9,8 C 94 % 1013,7 hPa 0,0 l/m 0,0 km/h (0 Bft) S-SW 200 15 min 0,000 mm 1,0 UV-I 50 W/m 8,9 C 9,8 C 0,0 km/h (0 Bft) 0,00 %
17.09.2014 07:30 10,7 C 93 % 1013,7 hPa 0,0 l/m 0,0 km/h (0 Bft) S-SW 200 0 min 0,000 mm 1,0 UV-I 66 W/m 9,6 C 10,7 C 0,0 km/h (0 Bft) 0,00 %
17.09.2014 07:45 11,7 C 92 % 1013,2 hPa 0,0 l/m 0,0 km/h (0 Bft) W-SW 251 0 min 0,000 mm 1,0 UV-I 75 W/m 10,4 C 11,7 C 0,0 km/h (0 Bft) 0,00 %
17.09.2014 08:00 13,2 C 89 % 1013,3 hPa 0,0 l/m 0,0 km/h (0 Bft) W-SW 251 0 min 0,000 mm 2,0 UV-I 83 W/m 11,4 C 13,2 C 0,0 km/h (0 Bft) 0,00 %
17.09.2014 08:15 15,1 C 76 % 1012,8 hPa 0,0 l/m 0,0 km/h (0 Bft) W-SW 251 0 min 0,000 mm 1,0 UV-I 90 W/m 10,9 C 15,1 C 0,0 km/h (0 Bft) 0,00 %
17.09.2014 08:30 16,2 C 69 % 1012,7 hPa 0,0 l/m 0,0 km/h (0 Bft) W-SW 251 0 min 0,000 mm 2,0 UV-I 98 W/m 10,5 C 16,2 C 0,0 km/h (0 Bft) 0,00 %
17.09.2014 08:45 16,7 C 70 % 1012,5 hPa 0,0 l/m 0,4 km/h (0 Bft) O 88 0 min 0,000 mm 2,0 UV-I 115 W/m 11,2 C 16,7 C 4,0 km/h (1 Bft) 0,00 %
17.09.2014 09:00 16,2 C 71 % 1012,4 hPa 0,0 l/m 2,9 km/h (1 Bft) O 100 0 min 0,000 mm 3,0 UV-I 131 W/m 10,9 C 16,2 C 7,9 km/h (2 Bft) 0,00 %
17.09.2014 09:15 16,3 C 71 % 1012,3 hPa 0,0 l/m 0,7 km/h (0 Bft) O 101 0 min 0,000 mm 3,0 UV-I 147 W/m 11,0 C 16,3 C 4,0 km/h (1 Bft) 0,00 %
17.09.2014 09:30 15,9 C 71 % 1012,6 hPa 0,0 l/m 0,4 km/h (0 Bft) SO 129 0 min 0,000 mm 3,0 UV-I 153 W/m 10,6 C 15,9 C 4,0 km/h (1 Bft) 0,00 %
17.09.2014 09:45 16,8 C 69 % 1012,7 hPa 0,0 l/m 0,7 km/h (0 Bft) O-SO 123 0 min 0,000 mm 4,0 UV-I 181 W/m 11,1 C 16,8 C 4,0 km/h (1 Bft) 0,00 %
17.09.2014 10:00 17,9 C 66 % 1012,4 hPa 0,0 l/m 1,4 km/h (1 Bft) O-SO 120 0 min 0,000 mm 4,0 UV-I 217 W/m 11,5 C 17,9 C 4,0 km/h (1 Bft) 0,00 %
17.09.2014 10:15 18,9 C 63 % 1012,1 hPa 0,0 l/m 6,8 km/h (2 Bft) SO 131 0 min 0,000 mm 4,0 UV-I 243 W/m 11,7 C 18,7 C 11,9 km/h (2 Bft) 0,00 %
17.09.2014 10:30 18,8 C 62 % 1012,1 hPa 0,0 l/m 6,8 km/h (2 Bft) O-SO 105 0 min 0,000 mm 4,0 UV-I 272 W/m 11,4 C 18,6 C 7,9 km/h (2 Bft) 0,00 %
17.09.2014 10:45 19,4 C 62 % 1011,7 hPa 0,0 l/m 4,0 km/h (1 Bft) NO 43 0 min 0,000 mm 5,0 UV-I 303 W/m 11,9 C 19,4 C 7,9 km/h (2 Bft) 0,00 %
17.09.2014 11:00 20,0 C 60 % 1011,8 hPa 0,0 l/m 7,2 km/h (2 Bft) O-SO 103 15 min 0,000 mm 5,0 UV-I 339 W/m 12,0 C 19,7 C 11,9 km/h (2 Bft) 0,00 %
17.09.2014 11:15 20,1 C 60 % 1011,7 hPa 0,0 l/m 9,7 km/h (2 Bft) O 85 15 min 0,000 mm 5,0 UV-I 375 W/m 12,1 C 18,8 C 15,8 km/h (3 Bft) 0,00 %
17.09.2014 11:30 20,0 C 61 % 1011,7 hPa 0,0 l/m 1,8 km/h (1 Bft) N-NO 33 15 min 0,000 mm 5,0 UV-I 358 W/m 12,2 C 20,0 C 4,0 km/h (1 Bft) 0,00 %
17.09.2014 11:45 20,6 C 57 % 1011,5 hPa 0,0 l/m 1,4 km/h (1 Bft) NO 40 15 min 0,000 mm 6,0 UV-I 447 W/m 11,8 C 20,6 C 4,0 km/h (1 Bft) 0,00 %
17.09.2014 12:00 20,7 C 58 % 1011,1 hPa 0,0 l/m 5,8 km/h (2 Bft) O 83 15 min 0,000 mm 5,0 UV-I 488 W/m 12,1 C 20,7 C 7,9 km/h (2 Bft) 0,00 %
17.09.2014 12:15 20,9 C 55 % 1011,1 hPa 0,0 l/m 2,9 km/h (1 Bft) O 99 15 min 0,000 mm 6,0 UV-I 533 W/m 11,5 C 20,9 C 7,9 km/h (2 Bft) 0,00 %
17.09.2014 12:30 21,0 C 55 % 1010,8 hPa 0,0 l/m 5,8 km/h (2 Bft) O 80 15 min 0,000 mm 5,0 UV-I 574 W/m 11,6 C 21,0 C 7,9 km/h (2 Bft) 0,00 %
17.09.2014 12:45 21,2 C 55 % 1010,8 hPa 0,0 l/m 4,3 km/h (1 Bft) O-NO 58 15 min 0,000 mm 5,0 UV-I 594 W/m 11,8 C 21,2 C 7,9 km/h (2 Bft) 0,00 %
17.09.2014 13:00 21,2 C 55 % 1010,5 hPa 0,0 l/m 0,7 km/h (0 Bft) O 95 15 min 0,000 mm 5,0 UV-I 633 W/m 11,8 C 21,2 C 4,0 km/h (1 Bft) 0,00 %
17.09.2014 13:15 21,5 C 51 % 1010,3 hPa 0,0 l/m 1,8 km/h (1 Bft) N-NO 19 15 min 0,000 mm 5,0 UV-I 643 W/m 10,9 C 21,5 C 4,0 km/h (1 Bft) 0,00 %
17.09.2014 13:30 21,9 C 51 % 1010,2 hPa 0,0 l/m 6,8 km/h (2 Bft) SO 135 15 min 0,000 mm 2,0 UV-I 496 W/m 11,3 C 21,8 C 11,9 km/h (2 Bft) 0,00 %
17.09.2014 13:45 22,0 C 51 % 1009,9 hPa 0,0 l/m 8,3 km/h (2 Bft) O-NO 63 15 min 0,000 mm 2,0 UV-I 658 W/m 11,4 C 21,4 C 11,9 km/h (2 Bft) 0,00 %
17.09.2014 14:00 22,1 C 52 % 1009,7 hPa 0,0 l/m 1,4 km/h (1 Bft) S-SO 147 15 min 0,000 mm 2,0 UV-I 681 W/m 11,8 C 22,1 C 4,0 km/h (1 Bft) 0,00 %
17.09.2014 14:15 22,2 C 50 % 1009,8 hPa 0,0 l/m 13,3 km/h (3 Bft) O-SO 122 15 min 0,000 mm 2,0 UV-I 625 W/m 11,3 C 20,3 C 19,8 km/h (3 Bft) 0,00 %
17.09.2014 14:30 22,4 C 50 % 1009,4 hPa 0,0 l/m 5,8 km/h (2 Bft) O-NO 77 15 min 0,000 mm 2,0 UV-I 634 W/m 11,5 C 22,4 C 11,9 km/h (2 Bft) 0,00 %
17.09.2014 14:45 22,6 C 52 % 1009,4 hPa 0,0 l/m 6,5 km/h (2 Bft) O-SO 122 15 min 0,000 mm 2,0 UV-I 630 W/m 12,2 C 22,6 C 11,9 km/h (2 Bft) 0,00 %
17.09.2014 15:00 22,7 C 51 % 1009,3 hPa 0,0 l/m 7,9 km/h (2 Bft) O-SO 113 15 min 0,000 mm 2,0 UV-I 625 W/m 12,0 C 22,2 C 11,9 km/h (2 Bft) 0,00 %
17.09.2014 15:15 22,7 C 47 % 1008,5 hPa 0,0 l/m 5,4 km/h (1 Bft) N-NW 346 15 min 0,000 mm 2,0 UV-I 620 W/m 10,8 C 22,7 C 7,9 km/h (2 Bft) 0,00 %
17.09.2014 15:30 22,8 C 47 % 1008,9 hPa 0,0 l/m 15,5 km/h (3 Bft) O-SO 119 15 min 0,000 mm 2,0 UV-I 634 W/m 10,9 C 20,6 C 24,1 km/h (4 Bft) 0,00 %
17.09.2014 15:45 22,8 C 47 % 1008,9 hPa 0,0 l/m 16,9 km/h (3 Bft) O-SO 102 15 min 0,000 mm 2,0 UV-I 630 W/m 10,9 C 20,3 C 24,1 km/h (4 Bft) 0,00 %
17.09.2014 16:00 22,8 C 45 % 1008,5 hPa 0,0 l/m 6,8 km/h (2 Bft) O 82 15 min 0,000 mm 2,0 UV-I 615 W/m 10,2 C 22,7 C 7,9 km/h (2 Bft) 0,00 %
17.09.2014 16:15 22,9 C 46 % 1008,4 hPa 0,0 l/m 2,9 km/h (1 Bft) S-SW 202 15 min 0,000 mm 2,0 UV-I 620 W/m 10,7 C 22,9 C 4,0 km/h (1 Bft) 0,00 %
17.09.2014 16:30 23,0 C 43 % 1008,5 hPa 0,0 l/m 6,8 km/h (2 Bft) NO 53 15 min 0,000 mm 1,0 UV-I 605 W/m 9,7 C 22,9 C 11,9 km/h (2 Bft) 0,00 %
17.09.2014 16:45 23,1 C 44 % 1008,5 hPa 0,0 l/m 2,9 km/h (1 Bft) O-NO 59 15 min 0,000 mm 1,0 UV-I 578 W/m 10,2 C 23,1 C 7,9 km/h (2 Bft) 0,00 %
17.09.2014 17:00 23,5 C 42 % 1008,4 hPa 0,0 l/m 7,9 km/h (2 Bft) O 88 15 min 0,000 mm 1,0 UV-I 577 W/m 9,8 C 23,1 C 15,8 km/h (3 Bft) 0,00 %
17.09.2014 17:15 23,3 C 43 % 1008,4 hPa 0,0 l/m 6,5 km/h (2 Bft) O 92 15 min 0,000 mm 1,0 UV-I 544 W/m 10,0 C 23,3 C 7,9 km/h (2 Bft) 0,00 %
17.09.2014 17:30 23,0 C 44 % 1008,3 hPa 0,0 l/m 5,4 km/h (1 Bft) O 85 15 min 0,000 mm 1,0 UV-I 498 W/m 10,1 C 23,0 C 7,9 km/h (2 Bft) 0,00 %
17.09.2014 17:45 22,7 C 45 % 1008,5 hPa 0,0 l/m 4,0 km/h (1 Bft) O 92 15 min 0,000 mm 1,0 UV-I 456 W/m 10,1 C 22,7 C 7,9 km/h (2 Bft) 0,00 %
17.09.2014 18:00 22,4 C 45 % 1008,4 hPa 0,0 l/m 8,3 km/h (2 Bft) S 188 15 min 0,000 mm 0,0 UV-I 384 W/m 9,9 C 21,8 C 11,9 km/h (2 Bft) 0,00 %
17.09.2014 18:15 21,8 C 48 % 1008,6 hPa 0,0 l/m 0,7 km/h (0 Bft) SO 131 15 min 0,000 mm 0,0 UV-I 329 W/m 10,3 C 21,8 C 4,0 km/h (1 Bft) 0,00 %
17.09.2014 18:30 21,3 C 50 % 1009,0 hPa 0,0 l/m 5,8 km/h (2 Bft) O-SO 116 15 min 0,000 mm 0,0 UV-I 239 W/m 10,4 C 21,3 C 7,9 km/h (2 Bft) 0,00 %
17.09.2014 18:45 20,5 C 52 % 1008,9 hPa 0,0 l/m 1,8 km/h (1 Bft) O 88 15 min 0,000 mm 0,0 UV-I 144 W/m 10,3 C 20,5 C 4,0 km/h (1 Bft) 0,00 %
17.09.2014 19:00 19,8 C 53 % 1009,4 hPa 0,0 l/m 0,0 km/h (0 Bft) O 86 0 min 0,000 mm 0,0 UV-I 7 W/m 9,9 C 19,8 C 0,0 km/h (0 Bft) 0,00 %
17.09.2014 19:15 18,8 C 57 % 1009,4 hPa 0,0 l/m 0,0 km/h (0 Bft) S-SW 203 0 min 0,000 mm 0,0 UV-I 0 W/m 10,1 C 18,8 C 0,0 km/h (0 Bft) 0,00 %
17.09.2014 19:30 18,2 C 62 % 1009,5 hPa 0,0 l/m 0,0 km/h (0 Bft) S-SO 149 0 min 0,000 mm 0,0 UV-I 0 W/m 10,8 C 18,2 C 0,0 km/h (0 Bft) 0,00 %
17.09.2014 19:45 17,5 C 63 % 1009,8 hPa 0,0 l/m 0,0 km/h (0 Bft) O 93 0 min 0,000 mm 0,0 UV-I 0 W/m 10,4 C 17,5 C 0,0 km/h (0 Bft) 0,00 %
17.09.2014 20:00 16,9 C 65 % 1010,3 hPa 0,0 l/m 0,0 km/h (0 Bft) O 101 0 min 0,000 mm 0,0 UV-I 0 W/m 10,3 C 16,9 C 0,0 km/h (0 Bft) 0,00 %
17.09.2014 20:15 16,5 C 67 % 1010,4 hPa 0,0 l/m 0,4 km/h (0 Bft) S 171 0 min 0,000 mm 0,0 UV-I 0 W/m 10,4 C 16,5 C 4,0 km/h (1 Bft) 0,00 %
17.09.2014 20:30 16,0 C 69 % 1010,4 hPa 0,0 l/m 0,0 km/h (0 Bft) S 178 0 min 0,000 mm 0,0 UV-I 0 W/m 10,3 C 16,0 C 0,0 km/h (0 Bft) 0,00 %
17.09.2014 20:45 15,7 C 69 % 1010,4 hPa 0,0 l/m 0,0 km/h (0 Bft) O 80 0 min 0,000 mm 0,0 UV-I 0 W/m 10,0 C 15,7 C 0,0 km/h (0 Bft) 0,00 %
17.09.2014 21:00 15,4 C 71 % 1010,8 hPa 0,0 l/m 0,0 km/h (0 Bft) O 86 0 min 0,000 mm 0,0 UV-I 0 W/m 10,2 C 15,4 C 0,0 km/h (0 Bft) 0,00 %
17.09.2014 21:15 15,1 C 71 % 1010,7 hPa 0,0 l/m 0,4 km/h (0 Bft) O-NO 63 0 min 0,000 mm 0,0 UV-I 0 W/m 9,9 C 15,1 C 4,0 km/h (1 Bft) 0,00 %
17.09.2014 21:30 14,9 C 71 % 1010,9 hPa 0,0 l/m 0,7 km/h (0 Bft) O 101 0 min 0,000 mm 0,0 UV-I 0 W/m 9,7 C 14,9 C 4,0 km/h (1 Bft) 0,00 %
17.09.2014 21:45 14,8 C 71 % 1010,9 hPa 0,0 l/m 0,0 km/h (0 Bft) S 178 0 min 0,000 mm 0,0 UV-I 0 W/m 9,6 C 14,8 C 0,0 km/h (0 Bft) 0,00 %
17.09.2014 22:00 14,7 C 71 % 1010,9 hPa 0,0 l/m 0,0 km/h (0 Bft) O-NO 75 0 min 0,000 mm 0,0 UV-I 0 W/m 9,5 C 14,7 C 0,0 km/h (0 Bft) 0,00 %
17.09.2014 22:15 14,6 C 71 % 1010,8 hPa 0,0 l/m 0,7 km/h (0 Bft) O-SO 107 0 min 0,000 mm 0,0 UV-I 0 W/m 9,4 C 14,6 C 4,0 km/h (1 Bft) 0,00 %
17.09.2014 22:30 14,2 C 73 % 1011,0 hPa 0,0 l/m 0,4 km/h (0 Bft) S 170 0 min 0,000 mm 0,0 UV-I 0 W/m 9,4 C 14,2 C 4,0 km/h (1 Bft) 0,00 %
17.09.2014 22:45 14,2 C 73 % 1011,0 hPa 0,0 l/m 0,4 km/h (0 Bft) O-NO 71 0 min 0,000 mm 0,0 UV-I 0 W/m 9,4 C 14,2 C 4,0 km/h (1 Bft) 0,00 %
17.09.2014 23:00 14,0 C 73 % 1010,9 hPa 0,0 l/m 0,4 km/h (0 Bft) O-NO 76 0 min 0,000 mm 0,0 UV-I 0 W/m 9,2 C 14,0 C 4,0 km/h (1 Bft) 0,00 %
17.09.2014 23:15 13,7 C 73 % 1011,2 hPa 0,0 l/m 0,0 km/h (0 Bft) O-NO 73 0 min 0,000 mm 0,0 UV-I 0 W/m 8,9 C 13,7 C 0,0 km/h (0 Bft) 0,00 %
17.09.2014 23:30 13,7 C 73 % 1011,2 hPa 0,0 l/m 0,4 km/h (0 Bft) O-NO 71 0 min 0,000 mm 0,0 UV-I 0 W/m 8,9 C 13,7 C 4,0 km/h (1 Bft) 0,00 %
17.09.2014 23:45 13,5 C 73 % 1011,0 hPa 0,0 l/m 0,7 km/h (0 Bft) O 82 0 min 0,000 mm 0,0 UV-I 0 W/m 8,8 C 13,5 C 4,0 km/h (1 Bft) 0,00 %
_ Min-Zeit 07:00 17:00 17:30 - 02:00 - - - - - - 07:00 07:00 02:00 00:00
Minimum _ 9,2 C 42 % 1008,3 hPa - 0,0 km/h (0 Bft) - - - - - - 8,3 C 9,2 C 0,0 km/h (0 Bft) 0,00 %
_ Max-Zeit 17:00 06:45 07:00 00:00 15:45 - - 07:00 00:00 11:45 14:00 11:30 17:15 15:30 00:00
Maximum _ 23,5 C 94 % 1013,8 hPa 0,0 l/m 16,9 km/h
O-SO (3 Bft)
- - 15 min 0,000 mm 6,0 UV-I 681 W/m 12,2 C 23,3 C 24,1 km/h
O-SO (4 Bft)
0,00 %
Durchschnitt _ 16,5 C 70 % 1011,4 hPa #0,0 l/m 2,4 km/h (1 Bft) O - #8:30 h #0,000 mm 2,8 UV-I 381 W/m 10,4 C 16,4 C 4,6 km/h (1 Bft) 0,00 %